Overview Statistics Trail Chart Weather Telemetry Raw packets
 

This is the latest recevied weather packets stored in our database for station/object N8BAP. If no packets are shown the sender has not sent any weather packets the latest 10 day(s).

<< 100 101 102 103 104 105 106 >>
Time Temp. Humidity Pressure Rain* Wind** Luminosity Snow
1787869987 26.67° C 68% 1019.6 hPa 0 mm - 98 W/m² -
1787869686 26.11° C 66% 1019.6 hPa 0 mm - 93 W/m² -
1787869384 26.67° C 63% 1019.8 hPa 0 mm - 94 W/m² -
1787869080 27.22° C 61% 1019.5 hPa 0 mm - 77 W/m² -
1787868778 28.33° C 58% 1019.8 hPa 0 mm - 72 W/m² -
1787868477 28.89° C 56% 1019.7 hPa 0 mm - 194 W/m² -
1787868176 28.89° C 58% 1019.8 hPa 0 mm - 256 W/m² -
1787867871 28.89° C 55% 1019.8 hPa 0 mm - 284 W/m² -
1787867567 28.89° C 54% 1019.5 hPa 0 mm - 267 W/m² -
1787867261 28.89° C 60% 1019.6 hPa 0 mm - 291 W/m² -
1787866958 28.89° C 57% 1019.8 hPa 0 mm - 296 W/m² -
1787866652 28.33° C 56% 1019.8 hPa 0 mm - 288 W/m² -
1787866351 28.89° C 56% 1019.6 hPa 0 mm - 267 W/m² -
1787866046 28.89° C 61% 1019.6 hPa 0 mm - 295 W/m² -
1787865741 28.33° C 62% 1019.7 hPa 0 mm - 295 W/m² -
1787865435 28.89° C 59% 1019.5 hPa 0 mm - 355 W/m² -
1787865130 28.89° C 57% 1019.7 hPa 0 mm - 340 W/m² -
1787864826 28.33° C 55% 1019.6 hPa 0 mm - 363 W/m² -
1787864521 28.89° C 59% 1019.6 hPa 0 mm - 386 W/m² -
1787864215 28.89° C 58% 1019.7 hPa 0 mm - 398 W/m² -
1787863910 28.89° C 58% 1019.6 hPa 0 mm - 398 W/m² -
1787863608 28.89° C 58% 1019.8 hPa 0 mm - 427 W/m² -
1787863303 28.89° C 64% 1019.8 hPa 0 mm - 458 W/m² -
1787862999 28.89° C 55% 1019.9 hPa 0 mm - 446 W/m² -
1787862699 28.89° C 56% 1020.1 hPa 0 mm - 504 W/m² -

* Rain latest hour (hover to see other rain measurements)
** Current wind speed in m/s (hover to see current wind gust speed)